Flag Weather past 2 weeks in Lidzbark Warmiński, Poland

Now
36 °F

Fog.


Feels Like: 36 °F
Forecast: 25 / 33 °F
Wind: 2 mph from Southeast

Location: Ketrzyn

Current Time: Nov 26, 2014 at 4:26:45 PM

Latest Report: Nov 26, 2014 at 3:00 PM


Visibility: 4 mi

Pressure: 30.31 "Hg

Humidity: 95%

Dew point: 35 °F

Location of Lidzbark WarmińskiLocation

Historic Weather in Lidzbark Warmiński — Graph

°F

Lidzbark Warmiński temperature yesterday

Maximum temperature yesterday: 33 °F (at 10:00 PM)
Minimum temperature yesterday: 32 °F (at 12:00 AM)
Average temperature yesterday: 33 °F

Past Weeks' High & Low Weather Summary

 TemperatureHumidityPressure
High49 °F (Nov 11, 3:00 PM)100% (Nov 11, 5:00 PM)30.53 "Hg (Nov 11, 5:00 PM)
Low30 °F (Nov 19, 8:00 AM)69% (Nov 18, 3:00 PM)29.97 "Hg (Nov 16, 3:00 PM)
Average37 °F91%30.22 "Hg
* Reported Nov 11 3:00 PM — Nov 26 3:00 PM, Lidzbark Warmiński, Weather by CustomWeather, © 2014

Note: Actual official high and low records may vary slightly from our data, if they occured in-between our weather recording intervals... More about our weather records

Advertising

Lidzbark Warmiński weather history for previous 24 hours

 ConditionsComfort  
Time TempWeatherWind HumidityBarometerVisibility
3:00 PM
Nov 26
36 °FFog.2 mph95%30.31 "Hg4 mi
2:00 PM36 °FFog.5 mph95%30.32 "Hg4 mi
1:00 PM36 °FFog.5 mph95%30.32 "Hg4 mi
12:00 PM36 °FFog.3 mph96%30.33 "Hg3 mi
11:00 AM35 °FFog.3 mph97%30.34 "Hg2 mi
10:00 AM35 °FFog.3 mph97%30.34 "Hg2 mi
9:00 AM34 °FFog.2 mph98%30.34 "Hg2 mi
8:00 AM34 °FFog.5 mph98%30.34 "Hg1 mi
7:00 AM34 °FFog.3 mph98%30.33 "Hg2 mi
6:00 AM34 °FFog.2 mph99%30.33 "Hg2 mi
5:00 AM34 °FFog.3 mph99%30.33 "Hg2 mi
3:00 AM34 °FFog.2 mph99%30.34 "Hg1 mi
2:00 AM33 °FFog.3 mph100%30.35 "Hg1 mi
1:00 AM33 °FFog.3 mph100%30.36 "Hg1 mi
12:00 AM33 °FFog.2 mph100%30.36 "Hg1 mi
11:00 PM
Nov 25
33 °FFog.3 mph100%30.36 "Hg1 mi
10:00 PM33 °FFog.3 mph100%30.36 "Hg1 mi
9:00 PM33 °FFog.3 mph99%30.35 "Hg1 mi
8:00 PM33 °FFog.3 mph99%30.35 "Hg1 mi
7:00 PM33 °FFog.3 mph99%30.35 "Hg1 mi
6:00 PM33 °FFog.3 mph99%30.35 "Hg1 mi
5:00 PM33 °FFog.2 mph99%30.34 "Hg1 mi
4:00 PM33 °FFog.2 mph98%30.34 "Hg1 mi
Weather by CustomWeather, © 2014

See weather overviewHow to use our weather pages